EW1782 Weather Reports


time (UTC)temp
C
wind
direction
speed
KPH
gust
KPH
rain 1hr
cm
rain 24hr
cm
rain mn
cm
humidity
%
barometer
mb
20260504081541 15 245 6.4 22.5 0.00 0.00 0.00 47 992.0
20260504044658 15 150 4.8 22.5 0.00 0.00 0.00 39 995.4
20260504043113 15 190 9.7 22.5 0.00 0.00 0.00 40 995.6
20260504041554 15 169 8.0 19.3 0.00 0.00 0.00 41 995.9
20260504040042 15 217 8.0 20.9 0.00 0.00 0.00 43 996.3
20260504034542 15 207 8.0 17.7 0.00 0.00 0.00 43 996.6
20260504033032 15 236 8.0 17.7 0.00 0.00 0.00 43 997.0
20260504031529 15 201 8.0 20.9 0.00 0.00 0.00 42 997.5
20260504030029 16 187 8.0 19.3 0.00 0.00 0.00 41 997.7
20260504024522 16 248 8.0 14.5 0.00 0.00 0.00 40 998.0
20260504023019 16 231 4.8 12.9 0.00 0.00 0.00 39 998.2
20260504021516 16 211 3.2 16.1 0.00 0.00 0.00 39 998.4
20260504020002 17 266 3.2 14.5 0.00 0.00 0.00 38 998.7
20260504014607 17 235 3.2 11.3 0.00 0.00 0.00 38 999.1
20260504013056 17 162 3.2 11.3 0.00 0.00 0.00 36 999.3
20260504011552 18 261 3.2 9.7 0.00 0.00 0.00 35 999.6
20260504010056 18 221 1.6 9.7 0.00 0.00 0.00 34 999.9
20260504004547 18 231 1.6 12.9 0.00 0.00 0.00 34 1000.1
20260504003043 18 162 1.6 14.5 0.00 0.00 0.00 33 1000.3
20260504001541 19 243 8.0 14.5 0.00 0.00 0.00 32 1000.5
20260504000021 19 302 3.2 14.5 0.00 0.00 0.00 31 1000.7
20260503234521 19 295 4.8 12.9 0.00 0.00 0.00 31 1000.9
20260503233110 20 309 3.2 12.9 0.00 0.00 0.00 30 1001.2
20260503231558 20 297 4.8 16.1 0.00 0.00 0.00 29 1001.5
20260503230103 20 297 6.4 14.5 0.00 0.00 0.00 28 1001.8
20260503224545 20 117 3.2 16.1 0.00 0.00 0.00 29 1002.0
20260503223100 20 295 4.8 14.5 0.00 0.00 0.00 28 1002.1
20260503221547 19 266 3.2 14.5 0.00 0.00 0.00 28 1002.3
20260503220039 20 295 6.4 12.9 0.00 0.00 0.00 28 1002.3
20260503214547 19 293 4.8 14.5 0.00 0.00 0.00 30 1002.5
20260503213035 18 70 6.4 14.5 0.00 0.00 0.00 29 1002.6
20260503211530 18 291 6.4 16.1 0.00 0.00 0.00 30 1003.0
20260503210018 18 295 6.4 17.7 0.00 0.00 0.00 30 1003.6
20260503204524 18 307 3.2 17.7 0.00 0.00 0.00 32 1003.9
20260503203014 18 323 8.0 16.1 0.00 0.00 0.00 31 1004.1
20260503201510 18 330 9.7 16.1 0.00 0.00 0.00 31 1004.4
20260503200008 18 266 3.2 14.5 0.00 0.00 0.00 33 1004.6
20260503194507 17 166 4.8 19.3 0.00 0.00 0.00 33 1004.9
20260503193007 17 352 4.8 17.7 0.00 0.00 0.00 33 1005.0
20260503191504 17 308 8.0 14.5 0.00 0.00 0.00 32 1005.3
20260503190050 17 312 3.2 9.7 0.00 0.00 0.00 33 1005.4
20260503184548 16 322 6.4 14.5 0.00 0.00 0.00 34 1005.7
20260503183054 16 22 9.7 16.1 0.00 0.00 0.00 32 1006.1
20260503181558 16 343 1.6 12.9 0.00 0.00 0.00 35 1006.2
20260503180050 16 320 4.8 16.1 0.00 0.00 0.00 34 1006.4
20260503174552 16 6 6.4 19.3 0.00 0.00 0.00 34 1006.8
20260503173044 16 321 6.4 16.1 0.00 0.00 0.00 35 1006.9
20260503171543 15 315 4.8 17.7 0.00 0.00 0.00 35 1006.9